Regional Weather Roundup
Issued by NWS

Home | Current Version | Previous Version | Text Only | Print | Product List | Glossary On
Versions: 1 2 3 4 5 6 7 8 9 10 11 12 13 14 15 16 17 18 19 20 21 22 23 24 25 26 27 28 29 30 31 32 33 34 35 36 37 38 39 40 41 42 43 44 45 46 47 48 49 50
000
ASPQ40 PGUM 221412
RWRPQ
WEATHER ROUNDUP FOR THE MARIANAS AND MICRONESIA
NATIONAL WEATHER SERVICE TIYAN GU
1200 AM CHST MON OCT 23 2017

GUZ001>004-221500-
MARIANA ISLANDS-

CITY           SKY/WX    TMP DP  RH WIND       PRES   REMARKS
GUAM AIRPORT   PTCLDY    81  79  94 N12       29.79F
ANDERSEN AFB   MOCLDY    77  73  88 NE5       29.81F
ROTA AIRPORT   NOT AVBL
TINIAN AP      NOT AVBL
SAIPAN AP      MOCLDY    81  79  94 N5        29.79F

$$

PMZ161-221500-
REPUBLIC OF PALAU-

CITY           SKY/WX    TMP DP  RH WIND       PRES   REMARKS
KOROR AP       CLOUDY    79  77  94 CALM      29.82S
KOROR WSO      MOCLDY    84  77  79 W13       29.83S HX  94

$$

PMZ171>174-221500-
FEDERATED STATES OF MICRONESIA-

CITY           SKY/WX    TMP DP  RH WIND       PRES   REMARKS
YAP AIRPORT    NOT AVBL
CHUUK AP       CLOUDY    82  77  83 VRB6      29.73S HX  91
POHNPEI AP     LGT RAIN  75  75 100 SE5       29.82F
POHNPEI WSO    CLOUDY    75  73  94 E3        29.85F
KOSRAE AP      NOT AVBL

$$

PMZ181-221500-
REPUBLIC OF THE MARSHALL ISLANDS-

CITY           SKY/WX    TMP DP  RH WIND       PRES   REMARKS
KWAJALEIN AP   CLOUDY    82  75  78 S9        29.88S
MAJURO AP      NOT AVBL
MAJURO WSO     MOCLDY    81  73  78 SW7       29.86F

$$




USA.gov is the U.S. government's official web portal to all federal, state and local government web resources and services.